Date String (YYYY-MM-DD hh:mm:ss) UTC,Instrument flags,Ambient pressure (hPa),Sample flow (lpm),Bypass flow (lpm),Sample temperature (°C),Ambient temperature (°C),ASC tube jacket temperature (°C),LED temperature (°C),Box temperature (°C),Sample RH (%),Span deviation,Mass concentration (μg/m³),Mass concentration (μg/m³),Mass concentration (μg/m³)
DateTimeUTC,F1_M11,P_M11,Q1_M11,Q2_M11,T1_M11,T2_M11,T3_M11,T4_M11,T5_M11,U1_M11,ZSPAN_M11,X0_M11,X2_M11,X1_M11
2023-04-26 00:00:00,,0827.2,4.99,0.00,25.1,23.6,00.0,33.6,26.7,23.7,0000.0,0007.08,0003.36,0002.94
2023-04-26 00:01:00,,0827.2,5.00,0.00,25.1,23.6,00.0,33.6,26.7,23.7,0000.0,0007.04,0003.34,0002.89
2023-04-26 00:02:00,,0827.2,5.00,0.00,25.1,23.6,00.0,33.6,26.7,23.7,0000.0,0006.91,0003.31,0002.85
2023-04-26 00:03:00,,0827.2,5.00,0.00,25.1,23.5,00.0,33.6,26.6,23.7,0000.0,0006.62,0003.28,0002.83
2023-04-26 00:04:00,,0827.2,5.00,0.00,25.1,23.5,00.0,33.6,26.7,23.7,0000.0,0006.68,0003.27,0002.79
2023-04-26 00:05:00,,0827.3,5.00,0.00,25.1,23.5,00.0,33.6,26.6,23.7,0000.0,0006.54,0003.23,0002.74
2023-04-26 00:06:00,,0827.2,4.99,0.00,25.1,23.5,00.0,33.5,26.6,23.7,0000.0,0006.44,0003.18,0002.68
2023-04-26 00:07:00,,0827.3,5.02,0.00,25.0,23.5,00.0,33.5,26.6,23.7,0000.0,0006.45,0003.18,0002.64
2023-04-26 00:08:00,,0827.3,5.01,0.00,25.0,23.5,00.0,33.5,26.6,23.7,0000.0,0006.53,0003.18,0002.60
2023-04-26 00:09:00,,0827.3,4.98,0.00,25.0,23.5,00.0,33.5,26.6,23.7,0000.0,0006.06,0003.15,0002.56
2023-04-26 00:10:00,,0827.4,5.00,0.00,25.0,23.5,00.0,33.5,26.6,23.7,0000.0,0005.70,0003.14,0002.52
2023-04-26 00:11:00,,0827.4,5.01,0.00,25.0,23.5,00.0,33.5,26.6,23.8,0000.0,0004.86,0003.13,0002.48
2023-04-26 00:12:00,,0827.4,5.00,0.00,25.0,23.5,00.0,33.5,26.6,23.7,0000.0,0004.87,0003.13,0002.44
2023-04-26 00:13:00,,0827.4,5.00,0.00,25.0,23.5,00.0,33.5,26.6,23.7,0000.0,0004.84,0003.10,0002.39
2023-04-26 00:14:00,,0827.3,5.00,0.00,25.0,23.5,00.0,33.5,26.6,23.7,0000.0,0004.89,0003.08,0002.33
2023-04-26 00:15:00,,0827.3,5.00,0.00,25.0,23.4,00.0,33.5,26.6,23.7,0000.0,0004.93,0003.00,0002.30
2023-04-26 00:16:00,,0827.4,5.01,0.00,25.0,23.4,00.0,33.5,26.6,23.6,0000.0,0004.83,0002.94,0002.27
2023-04-26 00:17:00,,0827.4,4.99,0.00,25.0,23.4,00.0,33.5,26.6,23.6,0000.0,0004.80,0002.87,0002.24
2023-04-26 00:18:00,,0827.4,4.99,0.00,25.0,23.4,00.0,33.4,26.6,23.6,0000.0,0004.64,0002.79,0002.21
2023-04-26 00:19:00,,0827.4,5.00,0.00,25.0,23.4,00.0,33.4,26.5,23.6,0000.0,0004.64,0002.78,0002.18
2023-04-26 00:20:00,,0827.4,5.00,0.00,25.0,23.4,00.0,33.4,26.6,23.6,0000.0,0005.03,0002.78,0002.15
2023-04-26 00:21:00,,0827.4,5.00,0.00,25.0,23.4,00.0,33.4,26.6,23.6,0000.0,0006.65,0002.78,0002.13
2023-04-26 00:22:00,,0827.4,5.00,0.00,25.0,23.4,00.0,33.4,26.6,23.5,0000.0,0006.76,0002.74,0002.12
2023-04-26 00:23:00,,0827.4,5.00,0.00,25.0,23.4,00.0,33.4,26.6,23.5,0000.0,0006.73,0002.68,0002.09
2023-04-26 00:24:00,,0827.4,5.00,0.00,25.0,23.4,00.0,33.4,26.5,23.5,0000.0,0006.67,0002.66,0002.07
2023-04-26 00:25:00,,0827.4,5.01,0.00,25.0,23.4,00.0,33.4,26.5,23.4,0000.0,0006.51,0002.62,0002.05
2023-04-26 00:26:00,,0827.4,5.00,0.00,24.9,23.4,00.0,33.4,26.5,23.5,0000.0,0006.19,0002.58,0002.02
2023-04-26 00:27:00,,0827.4,5.00,0.00,24.9,23.4,00.0,33.4,26.5,23.5,0000.0,0006.05,0002.57,0001.99
2023-04-26 00:28:00,,0827.4,5.00,0.00,24.9,23.4,00.0,33.4,26.5,23.5,0000.0,0005.99,0002.55,0001.98
2023-04-26 00:29:00,,0827.4,4.99,0.00,24.9,23.3,00.0,33.4,26.5,23.6,0000.0,0006.05,0002.54,0001.94
2023-04-26 00:30:00,,0827.4,5.00,0.00,24.9,23.3,00.0,33.4,26.5,23.6,0000.0,0006.02,0002.53,0001.93
2023-04-26 00:31:00,,0827.4,5.00,0.00,24.9,23.4,00.0,33.4,26.5,23.7,0000.0,0005.53,0002.49,0001.91
2023-04-26 00:32:00,,0827.4,5.01,0.00,24.9,23.4,00.0,33.4,26.5,23.7,0000.0,0003.97,0002.47,0001.91
2023-04-26 00:33:00,,0827.5,5.00,0.00,24.9,23.4,00.0,33.4,26.5,23.8,0000.0,0003.85,0002.47,0001.90
2023-04-26 00:34:00,,0827.6,4.99,0.00,24.9,23.4,00.0,33.4,26.5,23.8,0000.0,0004.04,0002.54,0001.90
2023-04-26 00:35:00,,0827.6,5.00,0.00,24.9,23.4,00.0,33.4,26.5,23.8,0000.0,0004.60,0002.60,0001.89
2023-04-26 00:36:00,,0827.5,5.01,0.00,24.9,23.3,00.0,33.3,26.5,23.8,0000.0,0004.75,0002.66,0001.91
2023-04-26 00:37:00,,0827.7,5.01,0.00,24.9,23.3,00.0,33.3,26.4,23.8,0000.0,0004.77,0002.65,0001.92
2023-04-26 00:38:00,,0827.9,5.00,0.00,24.9,23.3,00.0,33.3,26.4,23.9,0000.0,0004.93,0002.70,0001.93
2023-04-26 00:39:00,,0827.6,5.00,0.00,24.9,23.3,00.0,33.3,26.4,23.9,0000.0,0004.97,0002.75,0001.94
2023-04-26 00:40:00,,0827.6,5.00,0.00,24.8,23.3,00.0,33.3,26.5,23.9,0000.0,0004.93,0002.77,0001.96
2023-04-26 00:41:00,,0827.5,5.01,0.00,24.8,23.3,00.0,33.3,26.5,23.9,0000.0,0005.18,0002.84,0001.98
2023-04-26 00:42:00,,0827.5,5.00,0.00,24.8,23.3,00.0,33.3,26.4,23.9,0000.0,0005.62,0002.88,0002.00
2023-04-26 00:43:00,,0827.5,4.99,0.00,24.8,23.3,00.0,33.3,26.4,23.9,0000.0,0005.62,0002.89,0002.02
2023-04-26 00:44:00,,0827.6,5.00,0.00,24.8,23.3,00.0,33.3,26.4,24.0,0000.0,0005.85,0002.94,0002.03
2023-04-26 00:45:00,,0827.6,5.00,0.00,24.8,23.3,00.0,33.3,26.4,24.0,0000.0,0005.82,0002.88,0002.04
2023-04-26 00:46:00,,0827.7,5.00,0.00,24.8,23.3,00.0,33.3,26.4,24.0,0000.0,0005.33,0002.85,0002.06
2023-04-26 00:47:00,,0827.7,5.00,0.00,24.8,23.3,00.0,33.3,26.4,24.0,0000.0,0005.97,0002.86,0002.07
2023-04-26 00:48:00,,0827.7,5.00,0.00,24.8,23.2,00.0,33.3,26.4,24.0,0000.0,0006.49,0002.89,0002.07
2023-04-26 00:49:00,,0827.8,5.00,0.00,24.8,23.2,00.0,33.3,26.4,23.9,0000.0,0006.47,0002.87,0002.06
2023-04-26 00:50:00,,0827.7,5.00,0.00,24.8,23.2,00.0,33.3,26.3,23.9,0000.0,0006.48,0002.87,0002.06
2023-04-26 00:51:00,,0827.7,5.00,0.00,24.8,23.2,00.0,33.2,26.4,23.9,0000.0,0006.50,0002.88,0002.05
2023-04-26 00:52:00,,0827.7,5.00,0.00,24.8,23.2,00.0,33.2,26.4,23.8,0000.0,0006.33,0002.83,0002.03
2023-04-26 00:53:00,,0827.7,5.00,0.00,24.8,23.2,00.0,33.2,26.3,23.8,0000.0,0005.73,0002.75,0002.02
2023-04-26 00:54:00,,0827.8,5.00,0.00,24.8,23.2,00.0,33.2,26.4,23.8,0000.0,0005.69,0002.74,0002.00
2023-04-26 00:55:00,,0827.8,5.00,0.00,24.8,23.2,00.0,33.2,26.3,23.8,0000.0,0006.41,0002.73,0001.97
2023-04-26 00:56:00,,0827.8,4.99,0.00,24.8,23.2,00.0,33.2,26.3,23.8,0000.0,0006.67,0002.73,0001.95
2023-04-26 00:57:00,,0827.8,5.00,0.00,24.8,23.2,00.0,33.2,26.4,23.8,0000.0,0007.14,0002.72,0001.92
2023-04-26 00:58:00,,0827.8,4.99,0.00,24.7,23.2,00.0,33.2,26.3,23.8,0000.0,0007.49,0002.66,0001.90
2023-04-26 00:59:00,,0827.8,5.02,0.00,24.7,23.2,00.0,33.2,26.3,23.8,0000.0,0006.82,0002.62,0001.88
